User: anonymous   Login
Location: Cornospital
(48.0620°N, 3.3837°W)
Time: 14:56:43
(UTC+00:00)
Language:

Cosmos 1000 Rocket - Orbit

View from above orbital plane
View from above orbital plane
View from above satellite
View from above satellite

Ground track
Ground track

The orbit data is extracted from the following two-line orbital elements,

1 10777U 78034B   21263.13792380  .00000032  00000-0  16989-4 0  9993
2 10777  82.9444 153.2549 0026430 156.8157 356.0126 13.77454604184582
Epoch (UTC): 20 September 2021 03:18:36
Eccentricity: 0.0026430
inclination: 82.9444°
perigee height: 953 km
apogee height: 992 km
right ascension of ascending node: 153.2549°
argument of perigee: 156.8157°
revolutions per day: 13.77454604
mean anomaly at epoch: 356.0126°
orbit number at epoch: 18458

The dashed part of the orbit path shows where the satellite is in the earth's shadow,  

DLR